This demonstration page uses our WeatherBlox Daily Observations layout. Learn more.

Left ArrowRight Arrow

Hourly Observations for January 13, 2018

Temp ( °F °C ) Dew Point ( °F °C ) Humidity (%) Winds ( mph kmh ) Pressure ( in mb ) Visibility ( mi km ) Precip ( " mm )
12:53 am 00:53 Clear 43 6.1 41 5 93 93 Calm 30.29 1026 10 16 0.00 0.00
1:53 am 01:53 Clear 40 4.4 39 3.9 97 97 ENE 3 6 30.29 1026 10 16 0.00 0.00
2:53 am 02:53 Clear 43 6.1 39 3.9 86 86 VRB 3 6 30.28 1026 10 16 0.00 0.00
3:53 am 03:53 Clear 44 6.7 38 3.3 79 79 NNW 5 7 30.27 1025 10 16 0.00 0.00
4:53 am 04:53 Clear 41 5 38 3.3 89 89 WNW 6 9 30.27 1025 10 16 0.00 0.00
5:53 am 05:53 Clear 46 7.8 36 2.2 68 68 NNW 7 11 30.26 1025 10 16 0.00 0.00
6:53 am 06:53 Clear 51 10.6 34 1.1 52 52 NNW 8 13 30.26 1025 10 16 0.00 0.00
7:53 am 07:53 Sunny 52 11.1 34 1.1 50 50 NW 7 11 30.25 1024 10 16 0.00 0.00
8:53 am 08:53 Sunny 57 13.9 35 1.7 44 44 NNW 6 9 30.25 1024 10 16 0.00 0.00
9:53 am 09:53 Sunny 65 18.3 31 -0.6 28 28 N 13 20 30.24 1024 10 16 0.00 0.00
10:53 am 10:53 Sunny 68 20 33 0.6 27 27 N 10 17 30.24 1024 10 16 0.00 0.00
11:53 am 11:53 Sunny 71 21.7 35 1.7 27 27 N 12 19 30.21 1023 10 16 0.00 0.00
12:53 pm 12:53 Sunny 73 22.8 35 1.7 25 25 N 14 22 30.18 1022 10 16 0.00 0.00
1:53 pm 13:53 Sunny 74 23.3 36 2.2 25 25 NNE 9 15 30.16 1021 10 16 0.00 0.00
2:53 pm 14:53 Sunny 74 23.3 36 2.2 25 25 N 13 20 30.15 1021 10 16 0.00 0.00
3:53 pm 15:53 Sunny 63 17.2 49 9.4 60 60 SSE 12 19 30.16 1021 10 16 0.00 0.00
4:53 pm 16:53 Sunny 56 13.3 48 8.9 75 75 SSE 8 13 30.17 1022 10 16 0.00 0.00
5:53 pm 17:53 Clear 52 11.1 48 8.9 86 86 SE 6 9 30.18 1022 10 16 0.00 0.00
6:53 pm 18:53 Clear 52 11.1 47 8.3 83 83 Calm 30.20 1023 10 16 0.00 0.00
7:53 pm 19:53 Clear 49 9.4 46 7.8 90 90 NNE 3 6 30.21 1023 10 16 0.00 0.00
8:53 pm 20:53 Clear 48 8.9 46 7.8 93 93 NNE 5 7 30.22 1023 9 14 0.00 0.00
9:53 pm 21:53 Clear 47 8.3 45 7.2 93 93 Calm 30.22 1023 8 13 0.00 0.00
10:53 pm 22:53 Clear 45 7.2 43 6.1 93 93 N 3 6 30.21 1023 7 11 0.00 0.00
11:53 pm 23:53 Clear 44 6.7 42 5.6 93 93 Calm 30.20 1023 7 11 0.00 0.00

Powered by AerisWeather